TVF47D EDDN-OEMA

Flight info

Callsign TVF47D
Flight time 4h 40m
Altitude 31000
Route RODIS1G RODIS L604 RUDNO T203 TIVDA T703 BEPAS DCT DITIS DCT PESAT DCT BAREB DCT TUVAR/N0465F330 DCT ODLET DCT VABEK UL603 OLOTA DCT DISOR UL608 FSK UG18 MES UL609 RDS UL995 VANZA N134 SAFTA L324 TEZAK/N0468F350 L324 LAKTO L560 SILKA J852 KULKI
Aircraft B738/M-SDE2E3FGHIRWXY/LB1

Departure

Time 2026-04-25 17:47
Airport Nuremberg Airport (EDDN)

Arrival

Time 2026-04-25 22:28
Airport Prince Mohammad Bin Abdulaziz Airport (OEMA)
Time Latitude Longitude Altitude Speed Heading
2026-04-25 17:20 49.49509 11.07857 1034 ft 0 kts 188°
2026-04-25 17:40 49.49514 11.07858 1035 ft 2 kts 188°
2026-04-25 17:40 49.49529 11.07862 1035 ft 2 kts 188°
2026-04-25 17:40 49.49546 11.07865 1035 ft 2 kts 175°
2026-04-25 17:41 49.49562 11.07858 1036 ft 3 kts 147°
2026-04-25 17:41 49.49575 11.07840 1036 ft 3 kts 118°
2026-04-25 17:41 49.49580 11.07822 1036 ft 0 kts 97°
2026-04-25 17:42 49.49576 11.07865 1036 ft 10 kts 97°
2026-04-25 17:42 49.49567 11.07979 1037 ft 11 kts 97°
2026-04-25 17:43 49.49556 11.08087 1036 ft 10 kts 98°
2026-04-25 17:43 49.49546 11.08194 1037 ft 10 kts 101°
2026-04-25 17:43 49.49534 11.08297 1039 ft 10 kts 92°
2026-04-25 17:43 49.49559 11.08352 1041 ft 10 kts 24°
2026-04-25 17:44 49.49612 11.08392 1041 ft 5 kts 59°
2026-04-25 17:44 49.49613 11.08467 1042 ft 11 kts 98°
2026-04-25 17:44 49.49600 11.08601 1044 ft 17 kts 97°
2026-04-25 17:44 49.49571 11.08891 1048 ft 29 kts 99°
2026-04-25 17:45 49.49548 11.09127 1049 ft 17 kts 98°
2026-04-25 17:45 49.49539 11.09220 1050 ft 12 kts 98°
2026-04-25 17:45 49.49548 11.09399 1055 ft 13 kts 57°
2026-04-25 17:45 49.49604 11.09510 1055 ft 13 kts 52°
2026-04-25 17:46 49.49677 11.09561 1058 ft 12 kts 340°
2026-04-25 17:46 49.49705 11.09488 1057 ft 0 kts 275°
2026-04-25 17:46 49.49725 11.09251 1055 ft 56 kts 278°
2026-04-25 17:47 49.49821 11.08309 1043 ft 120 kts 279°
2026-04-25 17:47 49.49973 11.06756 1046 ft 172 kts 279°
2026-04-25 17:47 49.50145 11.04826 1512 ft 188 kts 278°
2026-04-25 17:47 49.50341 11.02787 2221 ft 194 kts 281°
2026-04-25 17:48 49.50723 10.98564 3192 ft 215 kts 281°
2026-04-25 17:48 49.51016 10.96236 3480 ft 227 kts 291°
2026-04-25 17:48 49.51899 10.94223 3904 ft 233 kts 319°
2026-04-25 17:49 49.53391 10.93061 4178 ft 250 kts 347°
2026-04-25 17:49 49.55147 10.93155 4797 ft 259 kts 14°
2026-04-25 17:49 49.56718 10.94561 5440 ft 269 kts 43°
2026-04-25 17:49 49.57689 10.97049 6087 ft 279 kts 71°
2026-04-25 17:50 49.57949 11.00049 6737 ft 286 kts 87°
2026-04-25 17:50 49.57903 11.03138 7367 ft 291 kts 90°
2026-04-25 17:50 49.57791 11.06264 8020 ft 294 kts 91°
2026-04-25 17:50 49.57679 11.09391 8639 ft 297 kts 91°
2026-04-25 17:51 49.57578 11.12591 9271 ft 302 kts 90°
2026-04-25 17:51 49.57490 11.15840 9911 ft 305 kts 90°
2026-04-25 17:51 49.57410 11.19141 10363 ft 315 kts 90°
2026-04-25 17:51 49.57335 11.22621 10526 ft 335 kts 90°
2026-04-25 17:52 49.57258 11.26314 10675 ft 355 kts 90°
2026-04-25 17:52 49.57205 11.28928 10772 ft 367 kts 90°
2026-04-25 17:52 49.57094 11.34305 10946 ft 391 kts 90°
2026-04-25 17:52 49.57004 11.38586 11106 ft 406 kts 90°
2026-04-25 17:53 49.56910 11.42978 11479 ft 413 kts 90°
2026-04-25 17:53 49.56813 11.47426 12001 ft 416 kts 90°
2026-04-25 17:53 49.56705 11.51894 12540 ft 419 kts 92°
2026-04-25 17:53 49.56294 11.56361 13041 ft 424 kts 102°
2026-04-25 17:54 49.55396 11.60707 13567 ft 428 kts 109°
2026-04-25 17:54 49.54376 11.65026 14037 ft 431 kts 109°
2026-04-25 17:54 49.53344 11.69375 14488 ft 434 kts 109°
2026-04-25 17:54 49.52316 11.73755 14943 ft 436 kts 109°
2026-04-25 17:55 49.51297 11.78160 15403 ft 439 kts 109°
2026-04-25 17:55 49.50290 11.82543 15852 ft 441 kts 109°
2026-04-25 17:55 49.49267 11.87013 16288 ft 444 kts 109°
2026-04-25 17:55 49.48235 11.91509 16710 ft 448 kts 109°
2026-04-25 17:56 49.47192 11.96036 17121 ft 451 kts 109°
2026-04-25 17:56 49.46138 12.00592 17548 ft 453 kts 109°
2026-04-25 17:56 49.45074 12.05176 17955 ft 456 kts 109°
2026-04-25 17:56 49.44004 12.09775 18365 ft 458 kts 109°
2026-04-25 17:57 49.42927 12.14398 18753 ft 461 kts 109°
2026-04-25 17:57 49.41844 12.19044 19133 ft 462 kts 109°
2026-04-25 17:57 49.40754 12.23703 19507 ft 464 kts 109°
2026-04-25 17:57 49.40385 12.25279 19640 ft 465 kts 109°
2026-04-25 17:58 49.38560 12.33066 20225 ft 469 kts 109°
2026-04-25 17:58 49.37451 12.37784 20561 ft 471 kts 109°
2026-04-25 17:58 49.36343 12.42531 20904 ft 473 kts 106°
2026-04-25 17:58 49.35783 12.47403 21198 ft 471 kts 88°
2026-04-25 17:59 49.36206 12.52355 21550 ft 467 kts 71°
2026-04-25 17:59 49.37465 12.56901 21887 ft 462 kts 57°
2026-04-25 17:59 49.39372 12.60835 22184 ft 458 kts 41°
2026-04-25 17:59 49.41790 12.64001 22496 ft 458 kts 39°
2026-04-25 18:00 49.43806 12.67836 22736 ft 470 kts 59°
2026-04-25 18:00 49.44859 12.72616 23019 ft 480 kts 79°
2026-04-25 18:00 49.44811 12.77764 23287 ft 488 kts 99°
2026-04-25 18:00 49.43653 12.82665 23533 ft 494 kts 120°
2026-04-25 18:01 49.41497 12.86764 23752 ft 496 kts 140°
2026-04-25 18:01 49.38585 12.89576 23985 ft 496 kts 159°
2026-04-25 18:01 49.35301 12.91113 24240 ft 494 kts 169°
2026-04-25 18:01 49.31915 12.92057 24457 ft 495 kts 173°
2026-04-25 18:02 49.28544 12.93187 24637 ft 500 kts 161°
2026-04-25 18:02 49.25510 12.95769 24842 ft 504 kts 141°
2026-04-25 18:02 49.23096 12.99655 25094 ft 505 kts 128°
2026-04-25 18:02 49.20966 13.03944 25359 ft 505 kts 127°
2026-04-25 18:03 49.18783 13.08149 25584 ft 506 kts 133°
2026-04-25 18:03 49.16277 13.11936 25854 ft 506 kts 137°
2026-04-25 18:03 49.13696 13.15584 26168 ft 504 kts 137°
2026-04-25 18:03 49.11180 13.19209 26471 ft 504 kts 136°
2026-04-25 18:04 49.08664 13.22923 26755 ft 503 kts 136°
2026-04-25 18:04 49.06166 13.26661 27052 ft 503 kts 136°
2026-04-25 18:04 49.03673 13.30403 27354 ft 502 kts 136°
2026-04-25 18:04 49.01185 13.34129 27658 ft 501 kts 136°
2026-04-25 18:05 48.98695 13.37841 28010 ft 500 kts 136°
2026-04-25 18:05 48.96215 13.41525 28357 ft 498 kts 136°
2026-04-25 18:05 48.93735 13.45201 28665 ft 497 kts 136°
2026-04-25 18:05 48.91260 13.48862 28957 ft 497 kts 136°
2026-04-25 18:06 48.88802 13.52551 29261 ft 496 kts 134°
2026-04-25 18:06 48.86421 13.56337 29591 ft 495 kts 133°
2026-04-25 18:06 48.84086 13.60175 29900 ft 493 kts 132°
2026-04-25 18:06 48.81775 13.64020 30215 ft 492 kts 132°
2026-04-25 18:07 48.79473 13.67852 30456 ft 492 kts 132°
2026-04-25 18:07 48.77168 13.71670 30670 ft 492 kts 132°
2026-04-25 18:07 48.74843 13.75497 30879 ft 492 kts 133°
2026-04-25 18:07 48.72523 13.79294 31036 ft 492 kts 133°
2026-04-25 18:08 48.70187 13.83099 31028 ft 494 kts 133°
2026-04-25 18:08 48.65511 13.90686 31038 ft 492 kts 133°
2026-04-25 18:09 48.60847 13.98228 31035 ft 489 kts 134°
2026-04-25 18:09 48.56209 14.05711 31040 ft 487 kts 134°
2026-04-25 18:10 48.52354 14.11916 31033 ft 487 kts 134°
2026-04-25 18:10 48.46954 14.20581 31036 ft 487 kts 134°
2026-04-25 18:11 48.42308 14.28015 31031 ft 488 kts 135°
2026-04-25 18:11 48.37640 14.35462 31023 ft 490 kts 135°
2026-04-25 18:12 48.32958 14.42909 31028 ft 490 kts 135°
2026-04-25 18:12 48.28262 14.50359 31030 ft 491 kts 135°
2026-04-25 18:13 48.23549 14.57813 31027 ft 492 kts 135°
2026-04-25 18:13 48.18829 14.65258 31030 ft 492 kts 136°
2026-04-25 18:14 48.11746 14.76389 31031 ft 492 kts 136°
2026-04-25 18:14 48.07018 14.83792 31031 ft 492 kts 136°
2026-04-25 18:15 48.02292 14.91173 31032 ft 491 kts 136°
2026-04-25 18:15 47.97591 14.98492 31021 ft 491 kts 136°
2026-04-25 18:16 47.92857 15.05843 31034 ft 491 kts 137°
2026-04-25 18:17 47.85746 15.16844 31022 ft 491 kts 137°
2026-04-25 18:17 47.80998 15.24165 31030 ft 492 kts 137°
2026-04-25 18:18 47.76242 15.31477 31018 ft 492 kts 137°
2026-04-25 18:18 47.71729 15.38396 31026 ft 491 kts 137°
2026-04-25 18:19 47.66947 15.45710 31048 ft 490 kts 137°
2026-04-25 18:19 47.62349 15.52720 31032 ft 491 kts 138°
2026-04-25 18:20 47.58126 15.59144 31020 ft 493 kts 138°
2026-04-25 18:20 47.53962 15.65461 31016 ft 495 kts 138°
2026-04-25 18:21 47.50554 15.70620 30999 ft 496 kts 138°
2026-04-25 18:21 47.47153 15.75758 31007 ft 497 kts 138°
2026-04-25 18:22 47.44358 15.79972 30990 ft 498 kts 138°
2026-04-25 18:22 47.40587 15.85651 30996 ft 498 kts 138°
2026-04-25 18:23 47.36364 15.91996 30988 ft 498 kts 138°
2026-04-25 18:23 47.31575 15.99172 30976 ft 497 kts 138°
2026-04-25 18:24 47.26995 16.06014 30974 ft 497 kts 138°
2026-04-25 18:24 47.22493 16.12724 30970 ft 496 kts 138°
2026-04-25 18:25 47.18184 16.19129 30970 ft 495 kts 138°
2026-04-25 18:25 47.14691 16.24310 30960 ft 494 kts 138°
2026-04-25 18:26 47.10766 16.30119 30969 ft 494 kts 138°
2026-04-25 18:26 47.06651 16.36196 30959 ft 494 kts 138°
2026-04-25 18:27 47.02402 16.42454 30964 ft 493 kts 138°
2026-04-25 18:27 46.98116 16.48752 30970 ft 493 kts 138°
2026-04-25 18:28 46.93849 16.55008 30971 ft 494 kts 138°
2026-04-25 18:28 46.89695 16.61084 30974 ft 494 kts 138°
2026-04-25 18:29 46.83053 16.70770 30987 ft 494 kts 138°
2026-04-25 18:30 46.75137 16.82268 30972 ft 495 kts 138°
2026-04-25 18:30 46.70429 16.89081 30983 ft 496 kts 138°
2026-04-25 18:31 46.65965 16.95525 30979 ft 496 kts 138°
2026-04-25 18:31 46.61069 17.02575 30963 ft 496 kts 138°
2026-04-25 18:32 46.56231 17.09523 30963 ft 496 kts 139°
2026-04-25 18:32 46.51482 17.16325 30964 ft 496 kts 139°
2026-04-25 18:33 46.46713 17.23139 30966 ft 495 kts 138°
2026-04-25 18:33 46.41851 17.30066 30970 ft 495 kts 139°
2026-04-25 18:34 46.37103 17.36814 30972 ft 494 kts 139°
2026-04-25 18:34 46.32232 17.43718 30971 ft 494 kts 139°
2026-04-25 18:35 46.27279 17.50720 30976 ft 494 kts 139°
2026-04-25 18:35 46.22510 17.57444 30969 ft 494 kts 139°
2026-04-25 18:36 46.17839 17.64014 30971 ft 494 kts 139°
2026-04-25 18:36 46.13052 17.70729 30979 ft 494 kts 139°
2026-04-25 18:37 46.08559 17.77016 30972 ft 494 kts 139°
2026-04-25 18:37 46.03781 17.83686 30978 ft 494 kts 139°
2026-04-25 18:38 45.98968 17.90387 30984 ft 494 kts 139°
2026-04-25 18:38 45.94278 17.96901 30983 ft 494 kts 139°
2026-04-25 18:39 45.89636 18.03333 30986 ft 494 kts 139°
2026-04-25 18:39 45.85027 18.09702 30985 ft 494 kts 139°
2026-04-25 18:40 45.80729 18.15630 30982 ft 494 kts 139°
2026-04-25 18:40 45.76762 18.21088 30979 ft 494 kts 139°
2026-04-25 18:41 45.72375 18.27112 30979 ft 494 kts 139°
2026-04-25 18:41 45.68120 18.32940 30974 ft 494 kts 139°
2026-04-25 18:42 45.64481 18.37914 30972 ft 494 kts 139°
2026-04-25 18:42 45.59168 18.45159 30977 ft 493 kts 139°
2026-04-25 18:43 45.54662 18.51288 30979 ft 493 kts 139°
2026-04-25 18:43 45.49930 18.57711 30994 ft 493 kts 139°
2026-04-25 18:44 45.44963 18.64435 30990 ft 493 kts 139°
2026-04-25 18:44 45.39993 18.71146 30993 ft 493 kts 139°
2026-04-25 18:45 45.35003 18.77867 30993 ft 493 kts 139°
2026-04-25 18:45 45.30024 18.84556 30992 ft 493 kts 139°
2026-04-25 18:46 45.25041 18.91234 30989 ft 492 kts 139°
2026-04-25 18:46 45.20062 18.97894 30985 ft 492 kts 139°
2026-04-25 18:47 45.14978 19.04379 30975 ft 489 kts 147°
2026-04-25 18:47 45.09032 19.08683 30982 ft 480 kts 165°
2026-04-25 18:48 45.02563 19.10666 30987 ft 475 kts 173°
2026-04-25 18:48 44.96057 19.12320 30991 ft 475 kts 173°
2026-04-25 18:49 44.89553 19.14028 30990 ft 476 kts 173°
2026-04-25 18:49 44.83046 19.15782 30996 ft 476 kts 173°
2026-04-25 18:50 44.76537 19.17545 30994 ft 476 kts 172°
2026-04-25 18:50 44.70038 19.19300 30992 ft 477 kts 172°
2026-04-25 18:51 44.64602 19.20764 30989 ft 477 kts 172°
2026-04-25 18:51 44.56990 19.22807 30991 ft 477 kts 172°
2026-04-25 18:52 44.50503 19.24544 30992 ft 477 kts 172°
2026-04-25 18:52 44.43969 19.26289 30992 ft 477 kts 172°
2026-04-25 18:53 44.37435 19.28031 30987 ft 478 kts 172°
2026-04-25 18:53 44.30898 19.29770 30992 ft 477 kts 172°
2026-04-25 18:54 44.21116 19.32365 30999 ft 477 kts 172°
2026-04-25 18:55 44.14601 19.34088 30999 ft 477 kts 172°
2026-04-25 18:55 44.08092 19.35806 31000 ft 476 kts 172°
2026-04-25 18:56 44.01579 19.37521 30998 ft 476 kts 171°
2026-04-25 18:56 43.95344 19.40709 31012 ft 482 kts 152°
2026-04-25 18:56 43.92572 19.43325 31001 ft 485 kts 141°
2026-04-25 18:57 43.90085 19.46496 31019 ft 485 kts 137°
2026-04-25 18:57 43.85234 19.53010 31007 ft 485 kts 137°
2026-04-25 18:58 43.80374 19.59489 31007 ft 485 kts 137°
2026-04-25 18:58 43.73044 19.69080 31012 ft 485 kts 138°
2026-04-25 18:59 43.63158 19.81901 31018 ft 486 kts 137°
2026-04-25 19:00 43.55802 19.91410 31018 ft 485 kts 137°
2026-04-25 19:01 43.48406 20.00939 31018 ft 485 kts 137°
2026-04-25 19:01 43.43475 20.07273 31028 ft 485 kts 137°
2026-04-25 19:02 43.36067 20.16761 31044 ft 484 kts 137°
2026-04-25 19:03 43.30298 20.24127 31032 ft 484 kts 137°
2026-04-25 19:03 43.23730 20.32489 31040 ft 483 kts 137°
2026-04-25 19:04 43.16378 20.41819 31030 ft 482 kts 137°
2026-04-25 19:05 43.06527 20.54272 31038 ft 481 kts 137°
2026-04-25 19:06 43.02097 20.59856 31035 ft 481 kts 137°
2026-04-25 19:06 42.95928 20.67752 31031 ft 480 kts 136°
2026-04-25 19:07 42.88924 20.76961 31037 ft 479 kts 136°
2026-04-25 19:08 42.81768 20.86304 31033 ft 479 kts 136°
2026-04-25 19:09 42.73701 20.96768 31046 ft 478 kts 136°
2026-04-25 19:10 42.65276 21.07656 31036 ft 478 kts 136°
2026-04-25 19:10 42.60867 21.13337 31053 ft 477 kts 136°
2026-04-25 19:11 42.57153 21.18114 31045 ft 477 kts 136°
2026-04-25 19:11 42.51826 21.24951 31049 ft 477 kts 136°
2026-04-25 19:12 42.47136 21.30956 31031 ft 477 kts 136°
2026-04-25 19:12 42.42939 21.36321 31043 ft 476 kts 136°
2026-04-25 19:13 42.39230 21.41052 31022 ft 476 kts 136°
2026-04-25 19:13 42.35736 21.45502 31031 ft 476 kts 135°
2026-04-25 19:14 42.32570 21.49527 31021 ft 476 kts 135°
2026-04-25 19:14 42.29229 21.53770 31025 ft 476 kts 135°
2026-04-25 19:15 42.26149 21.57677 31016 ft 476 kts 135°
2026-04-25 19:15 42.22748 21.61984 31015 ft 476 kts 136°
2026-04-25 19:16 42.19009 21.66525 31018 ft 476 kts 137°
2026-04-25 19:16 42.15223 21.70964 31021 ft 476 kts 138°
2026-04-25 19:17 42.11327 21.75508 31019 ft 475 kts 137°
2026-04-25 19:17 42.08118 21.79264 31028 ft 475 kts 137°
2026-04-25 19:18 42.04510 21.83503 31025 ft 474 kts 137°
2026-04-25 19:18 42.00993 21.87639 31013 ft 474 kts 137°
2026-04-25 19:19 41.97258 21.92026 31025 ft 474 kts 137°
2026-04-25 19:19 41.94302 21.95494 31006 ft 474 kts 137°
2026-04-25 19:20 41.90952 21.99417 31013 ft 474 kts 137°
2026-04-25 19:20 41.87133 22.03881 31006 ft 474 kts 137°
2026-04-25 19:21 41.83696 22.07893 31010 ft 473 kts 137°
2026-04-25 19:21 41.78136 22.14371 31006 ft 473 kts 137°
2026-04-25 19:22 41.74305 22.18825 31014 ft 473 kts 137°
2026-04-25 19:23 41.67247 22.27012 31004 ft 474 kts 137°
2026-04-25 19:23 41.60384 22.34950 31009 ft 474 kts 137°
2026-04-25 19:24 41.55408 22.40690 31005 ft 474 kts 137°
2026-04-25 19:25 41.45410 22.52189 31009 ft 474 kts 137°
2026-04-25 19:25 41.40433 22.57894 31017 ft 473 kts 137°
2026-04-25 19:26 41.35834 22.63156 31010 ft 473 kts 137°
2026-04-25 19:26 41.31218 22.68429 31011 ft 472 kts 137°
2026-04-25 19:27 41.27397 22.72786 31016 ft 472 kts 137°
2026-04-25 19:27 41.22515 22.79057 31016 ft 468 kts 128°
2026-04-25 19:28 41.18665 22.85263 31012 ft 467 kts 127°
2026-04-25 19:28 41.14806 22.91427 31011 ft 467 kts 127°
2026-04-25 19:29 41.10947 22.97469 31010 ft 467 kts 128°
2026-04-25 19:29 41.06562 23.02967 31032 ft 470 kts 139°
2026-04-25 19:30 41.02468 23.07252 31020 ft 470 kts 139°
2026-04-25 19:30 40.98595 23.11318 31016 ft 470 kts 139°
2026-04-25 19:31 40.94972 23.15196 31025 ft 470 kts 138°
2026-04-25 19:31 40.90972 23.19501 31010 ft 470 kts 138°
2026-04-25 19:32 40.87168 23.23584 31022 ft 470 kts 138°
2026-04-25 19:32 40.83959 23.27017 31015 ft 470 kts 138°
2026-04-25 19:33 40.78902 23.32419 31021 ft 470 kts 138°
2026-04-25 19:33 40.75000 23.36581 31013 ft 470 kts 138°
2026-04-25 19:34 40.71565 23.40241 31020 ft 469 kts 138°
2026-04-25 19:34 40.67724 23.44327 31019 ft 469 kts 138°
2026-04-25 19:35 40.63505 23.48809 31026 ft 469 kts 138°
2026-04-25 19:35 40.59493 23.53065 31008 ft 469 kts 138°
2026-04-25 19:36 40.55729 23.57050 31037 ft 468 kts 138°
2026-04-25 19:36 40.52527 23.60436 31014 ft 469 kts 138°
2026-04-25 19:37 40.47473 23.65771 31023 ft 468 kts 138°
2026-04-25 19:37 40.42395 23.71122 31026 ft 468 kts 138°
2026-04-25 19:38 40.37317 23.76461 31026 ft 468 kts 138°
2026-04-25 19:38 40.32269 23.81759 31025 ft 468 kts 138°
2026-04-25 19:39 40.27178 23.87091 31024 ft 468 kts 138°
2026-04-25 19:39 40.22093 23.92407 31033 ft 468 kts 138°
2026-04-25 19:40 40.17011 23.97709 31032 ft 467 kts 138°
2026-04-25 19:40 40.11924 24.03005 31028 ft 467 kts 138°
2026-04-25 19:41 40.06835 24.08293 31034 ft 467 kts 138°
2026-04-25 19:41 40.03435 24.11820 31035 ft 467 kts 138°
2026-04-25 19:42 39.96656 24.18840 31035 ft 467 kts 138°
2026-04-25 19:42 39.91568 24.24096 31035 ft 467 kts 138°
2026-04-25 19:43 39.86477 24.29345 31033 ft 467 kts 138°
2026-04-25 19:43 39.81384 24.34586 31034 ft 467 kts 138°
2026-04-25 19:44 39.76284 24.39824 31033 ft 466 kts 138°
2026-04-25 19:44 39.71191 24.45045 31033 ft 466 kts 138°
2026-04-25 19:45 39.66140 24.50213 31035 ft 466 kts 138°
2026-04-25 19:45 39.61046 24.55415 31033 ft 466 kts 138°
2026-04-25 19:46 39.55952 24.60609 31038 ft 465 kts 138°
2026-04-25 19:46 39.50865 24.65785 31034 ft 465 kts 138°
2026-04-25 19:47 39.45773 24.70950 31035 ft 465 kts 139°
2026-04-25 19:47 39.40677 24.76107 31031 ft 465 kts 139°
2026-04-25 19:48 39.35582 24.81255 31032 ft 464 kts 139°
2026-04-25 19:48 39.30490 24.86392 31029 ft 464 kts 139°
2026-04-25 19:49 39.27119 24.89788 31030 ft 464 kts 139°
2026-04-25 19:49 39.20341 24.96604 31032 ft 464 kts 139°
2026-04-25 19:50 39.12710 25.04254 31026 ft 463 kts 139°
2026-04-25 19:51 39.07629 25.09337 31026 ft 463 kts 139°
2026-04-25 19:51 39.02545 25.14415 31026 ft 462 kts 139°
2026-04-25 19:52 38.97471 25.19475 31015 ft 461 kts 139°
2026-04-25 19:52 38.92398 25.24524 31022 ft 460 kts 139°
2026-04-25 19:53 38.87340 25.29549 31019 ft 460 kts 139°
2026-04-25 19:53 38.82283 25.34564 31016 ft 459 kts 139°
2026-04-25 19:54 38.77234 25.39560 31008 ft 458 kts 139°
2026-04-25 19:54 38.72189 25.44545 31010 ft 457 kts 139°
2026-04-25 19:55 38.67153 25.49511 31012 ft 457 kts 139°
2026-04-25 19:55 38.62118 25.54469 31004 ft 456 kts 139°
2026-04-25 19:56 38.57081 25.59419 31003 ft 456 kts 139°
2026-04-25 19:56 38.52086 25.64319 31003 ft 456 kts 139°
2026-04-25 19:57 38.47053 25.69249 31008 ft 456 kts 139°
2026-04-25 19:57 38.42012 25.74177 30998 ft 457 kts 140°
2026-04-25 19:58 38.36958 25.79114 30992 ft 457 kts 140°
2026-04-25 19:58 38.31901 25.84037 30987 ft 458 kts 140°
2026-04-25 19:59 38.26822 25.88972 30983 ft 459 kts 141°
2026-04-25 19:59 38.21872 25.94086 30977 ft 459 kts 137°
2026-04-25 20:00 38.17093 25.99481 30980 ft 459 kts 136°
2026-04-25 20:00 38.12298 26.04857 30977 ft 459 kts 137°
2026-04-25 20:01 38.05066 26.12849 30980 ft 459 kts 137°
2026-04-25 20:01 38.00272 26.18128 30985 ft 459 kts 137°
2026-04-25 20:02 37.96239 26.22567 30990 ft 458 kts 137°
2026-04-25 20:02 37.91433 26.27850 30992 ft 457 kts 137°
2026-04-25 20:03 37.86623 26.33126 30980 ft 457 kts 137°
2026-04-25 20:03 37.81817 26.38372 30982 ft 456 kts 137°
2026-04-25 20:04 37.77042 26.43571 30979 ft 456 kts 137°
2026-04-25 20:04 37.72240 26.48796 30971 ft 455 kts 137°
2026-04-25 20:05 37.67446 26.54003 30962 ft 455 kts 137°
2026-04-25 20:05 37.62655 26.59206 30955 ft 454 kts 137°
2026-04-25 20:06 37.57868 26.64400 30958 ft 454 kts 137°
2026-04-25 20:06 37.53081 26.69586 30955 ft 453 kts 137°
2026-04-25 20:07 37.48296 26.74760 30954 ft 453 kts 137°
2026-04-25 20:07 37.43509 26.79929 30951 ft 453 kts 137°
2026-04-25 20:08 37.38746 26.85111 30948 ft 453 kts 136°
2026-04-25 20:08 37.34159 26.90539 30953 ft 452 kts 134°
2026-04-25 20:09 37.29636 26.96026 30949 ft 452 kts 134°
2026-04-25 20:09 37.25088 27.01499 30947 ft 453 kts 135°
2026-04-25 20:10 37.20526 27.06941 30944 ft 453 kts 135°
2026-04-25 20:10 37.15953 27.12374 30941 ft 453 kts 135°
2026-04-25 20:11 37.11379 27.17798 30941 ft 453 kts 135°
2026-04-25 20:11 37.06796 27.23224 30940 ft 454 kts 135°
2026-04-25 20:12 37.02203 27.28653 30940 ft 454 kts 136°
2026-04-25 20:12 36.98382 27.33163 30940 ft 455 kts 136°
2026-04-25 20:13 36.92997 27.39508 30939 ft 455 kts 136°
2026-04-25 20:13 36.88386 27.44930 30935 ft 455 kts 136°
2026-04-25 20:14 36.83801 27.50312 30933 ft 455 kts 136°
2026-04-25 20:14 36.79182 27.55725 30924 ft 455 kts 136°
2026-04-25 20:15 36.74559 27.61134 30922 ft 455 kts 136°
2026-04-25 20:15 36.69937 27.66531 30923 ft 455 kts 136°
2026-04-25 20:16 36.65313 27.71922 30915 ft 455 kts 137°
2026-04-25 20:16 36.60682 27.77312 30914 ft 455 kts 137°
2026-04-25 20:17 36.56086 27.82652 30914 ft 455 kts 137°
2026-04-25 20:17 36.51459 27.88018 30914 ft 455 kts 137°
2026-04-25 20:18 36.46833 27.93375 30913 ft 455 kts 137°
2026-04-25 20:18 36.42202 27.98729 30914 ft 454 kts 137°
2026-04-25 20:19 36.37575 28.04071 30913 ft 454 kts 137°
2026-04-25 20:19 36.32984 28.09457 30914 ft 454 kts 135°
2026-04-25 20:20 36.28688 28.15183 30913 ft 454 kts 133°
2026-04-25 20:20 36.24439 28.20976 30912 ft 453 kts 133°
2026-04-25 20:21 36.20172 28.26719 30916 ft 453 kts 134°
2026-04-25 20:21 36.15893 28.32434 30921 ft 452 kts 134°
2026-04-25 20:22 36.12341 28.37170 30926 ft 452 kts 134°
2026-04-25 20:22 36.07366 28.43789 30932 ft 451 kts 134°
2026-04-25 20:23 36.03060 28.49496 30934 ft 451 kts 134°
2026-04-25 20:23 35.98804 28.55125 30936 ft 451 kts 134°
2026-04-25 20:24 35.94521 28.60786 30939 ft 451 kts 135°
2026-04-25 20:24 35.90236 28.66442 30940 ft 451 kts 135°
2026-04-25 20:25 35.85864 28.71991 30941 ft 450 kts 137°
2026-04-25 20:25 35.81323 28.77312 30936 ft 450 kts 139°
2026-04-25 20:26 35.79037 28.79964 30784 ft 452 kts 136°
2026-04-25 20:26 35.76747 28.82629 30885 ft 454 kts 136°
2026-04-25 20:26 35.72144 28.88016 30999 ft 460 kts 136°
2026-04-25 20:27 35.67476 28.93498 31011 ft 467 kts 136°
2026-04-25 20:27 35.65135 28.96252 31171 ft 463 kts 139°
2026-04-25 20:27 35.62870 28.98912 31047 ft 451 kts 139°
2026-04-25 20:28 35.58383 29.04172 30945 ft 445 kts 139°
2026-04-25 20:28 35.53892 29.09421 30940 ft 445 kts 139°
2026-04-25 20:29 35.49407 29.14656 30936 ft 446 kts 139°
2026-04-25 20:29 35.44903 29.19906 30938 ft 447 kts 139°
2026-04-25 20:30 35.40384 29.25165 30938 ft 449 kts 139°
2026-04-25 20:30 35.35843 29.30443 30936 ft 451 kts 139°
2026-04-25 20:31 35.31278 29.35739 30936 ft 453 kts 139°
2026-04-25 20:31 35.26728 29.41009 30934 ft 454 kts 140°
2026-04-25 20:32 35.22137 29.46319 30932 ft 455 kts 140°
2026-04-25 20:32 35.17535 29.51633 30933 ft 455 kts 140°
2026-04-25 20:33 35.12927 29.56945 30929 ft 455 kts 140°
2026-04-25 20:33 35.09092 29.61360 30936 ft 455 kts 140°
2026-04-25 20:34 35.03698 29.67560 30932 ft 455 kts 140°
2026-04-25 20:34 34.99084 29.72854 30928 ft 455 kts 140°
2026-04-25 20:35 34.94486 29.78167 30928 ft 455 kts 139°
2026-04-25 20:35 34.89917 29.83520 30933 ft 456 kts 139°
2026-04-25 20:36 34.85369 29.88837 30929 ft 456 kts 140°
2026-04-25 20:36 34.80788 29.94174 30931 ft 456 kts 140°
2026-04-25 20:37 34.76213 29.99543 30926 ft 458 kts 136°
2026-04-25 20:37 34.72365 30.05782 30930 ft 463 kts 127°
2026-04-25 20:38 34.68765 30.12297 30925 ft 464 kts 127°
2026-04-25 20:38 34.65138 30.18799 30926 ft 465 kts 128°
2026-04-25 20:39 34.61480 30.25271 30927 ft 465 kts 128°
2026-04-25 20:39 34.59021 30.29598 30921 ft 465 kts 128°
2026-04-25 20:40 34.54115 30.38214 30922 ft 466 kts 128°
2026-04-25 20:40 34.50454 30.44633 30920 ft 466 kts 128°
2026-04-25 20:41 34.46765 30.51091 30921 ft 466 kts 128°
2026-04-25 20:41 34.43073 30.57541 30916 ft 466 kts 128°
2026-04-25 20:42 34.39377 30.63988 30905 ft 466 kts 128°
2026-04-25 20:42 34.35679 30.70429 30916 ft 466 kts 128°
2026-04-25 20:43 34.31977 30.76863 30912 ft 466 kts 129°
2026-04-25 20:43 34.28267 30.83302 30916 ft 466 kts 129°
2026-04-25 20:44 34.24553 30.89736 30910 ft 467 kts 129°
2026-04-25 20:44 34.20830 30.96159 30904 ft 467 kts 129°
2026-04-25 20:45 34.17093 31.02587 30907 ft 468 kts 129°
2026-04-25 20:45 34.13346 31.09026 30905 ft 468 kts 129°
2026-04-25 20:46 34.09592 31.15467 30905 ft 469 kts 129°
2026-04-25 20:46 34.05830 31.21912 30903 ft 470 kts 129°
2026-04-25 20:47 34.02063 31.28353 30895 ft 470 kts 129°
2026-04-25 20:47 33.98309 31.34760 30899 ft 471 kts 129°
2026-04-25 20:48 33.94527 31.41205 30901 ft 472 kts 129°
2026-04-25 20:48 33.90712 31.47696 30900 ft 472 kts 130°
2026-04-25 20:49 33.86910 31.54153 30898 ft 473 kts 130°
2026-04-25 20:49 33.83131 31.60559 30897 ft 473 kts 130°
2026-04-25 20:50 33.78625 31.66110 30902 ft 459 kts 151°
2026-04-25 20:50 33.72903 31.69191 30904 ft 448 kts 168°
2026-04-25 20:51 33.67920 31.70908 30892 ft 449 kts 168°
2026-04-25 20:51 33.61923 31.73014 30895 ft 450 kts 168°
2026-04-25 20:52 33.56893 31.74829 30888 ft 451 kts 168°
2026-04-25 20:52 33.49915 31.77363 30901 ft 451 kts 168°
2026-04-25 20:53 33.43891 31.79540 30898 ft 452 kts 168°
2026-04-25 20:53 33.37870 31.81709 30897 ft 452 kts 168°
2026-04-25 20:54 33.31841 31.83879 30896 ft 452 kts 168°
2026-04-25 20:54 33.25820 31.86044 30896 ft 452 kts 169°
2026-04-25 20:55 33.19797 31.88207 30893 ft 452 kts 169°
2026-04-25 20:55 33.13783 31.90363 30893 ft 451 kts 169°
2026-04-25 20:56 33.07765 31.92518 30892 ft 451 kts 169°
2026-04-25 20:56 33.01790 31.94654 30897 ft 451 kts 169°
2026-04-25 20:57 32.95779 31.96800 30897 ft 451 kts 169°
2026-04-25 20:57 32.89770 31.98942 30892 ft 451 kts 169°
2026-04-25 20:58 32.83759 32.01082 30899 ft 451 kts 170°
2026-04-25 20:58 32.77739 32.03222 30893 ft 451 kts 170°
2026-04-25 20:59 32.71721 32.05360 30893 ft 452 kts 170°
2026-04-25 20:59 32.65695 32.07516 30891 ft 454 kts 167°
2026-04-25 21:00 32.60873 32.10264 30883 ft 468 kts 153°
2026-04-25 21:01 32.52061 32.17849 30883 ft 471 kts 150°
2026-04-25 21:01 32.46748 32.22415 30884 ft 471 kts 151°
2026-04-25 21:02 32.41412 32.26942 30888 ft 472 kts 151°
2026-04-25 21:02 32.36072 32.31454 30889 ft 472 kts 151°
2026-04-25 21:03 32.30720 32.35972 30890 ft 473 kts 151°
2026-04-25 21:03 32.25367 32.40487 30890 ft 473 kts 151°
2026-04-25 21:04 32.20009 32.45000 30891 ft 473 kts 151°
2026-04-25 21:04 32.14640 32.49514 30890 ft 473 kts 151°
2026-04-25 21:05 32.09272 32.54013 30893 ft 473 kts 151°
2026-04-25 21:05 32.03896 32.58513 30891 ft 474 kts 151°
2026-04-25 21:06 31.98559 32.62976 30889 ft 474 kts 151°
2026-04-25 21:06 31.93186 32.67463 30890 ft 474 kts 151°
2026-04-25 21:07 31.87806 32.71950 30895 ft 474 kts 151°
2026-04-25 21:07 31.82427 32.76428 30896 ft 473 kts 151°
2026-04-25 21:08 31.77051 32.80899 30889 ft 473 kts 151°
2026-04-25 21:08 31.71670 32.85367 30891 ft 473 kts 151°
2026-04-25 21:09 31.63605 32.92051 30888 ft 473 kts 151°
2026-04-25 21:09 31.58226 32.96501 30889 ft 473 kts 151°
2026-04-25 21:10 31.52854 33.00939 30887 ft 472 kts 151°
2026-04-25 21:10 31.47483 33.05371 30895 ft 472 kts 151°
2026-04-25 21:11 31.42106 33.09802 30887 ft 472 kts 151°
2026-04-25 21:11 31.36664 33.14056 30880 ft 466 kts 158°
2026-04-25 21:12 31.30759 33.16732 30888 ft 456 kts 168°
2026-04-25 21:12 31.25691 33.18635 30883 ft 456 kts 168°
2026-04-25 21:13 31.18662 33.21302 30886 ft 457 kts 168°
2026-04-25 21:13 31.12621 33.23636 30880 ft 458 kts 167°
2026-04-25 21:14 31.06568 33.25986 30887 ft 458 kts 167°
2026-04-25 21:14 31.00508 33.28339 30886 ft 459 kts 167°
2026-04-25 21:15 30.94447 33.30688 30896 ft 459 kts 167°
2026-04-25 21:15 30.88410 33.33023 30899 ft 460 kts 167°
2026-04-25 21:16 30.82325 33.35373 30892 ft 461 kts 167°
2026-04-25 21:16 30.76236 33.37722 30899 ft 461 kts 167°
2026-04-25 21:17 30.70136 33.40072 30904 ft 461 kts 168°
2026-04-25 21:17 30.64084 33.42400 30900 ft 461 kts 167°
2026-04-25 21:18 30.58000 33.44738 30905 ft 461 kts 167°
2026-04-25 21:18 30.51907 33.47076 30913 ft 461 kts 167°
2026-04-25 21:19 30.45822 33.49407 30922 ft 461 kts 167°
2026-04-25 21:19 30.39734 33.51737 30919 ft 460 kts 168°
2026-04-25 21:20 30.34634 33.53687 30919 ft 460 kts 168°
2026-04-25 21:20 30.27567 33.56384 30932 ft 461 kts 168°
2026-04-25 21:21 30.21468 33.58708 30934 ft 462 kts 168°
2026-04-25 21:21 30.15344 33.61039 30931 ft 464 kts 168°
2026-04-25 21:22 30.09200 33.63375 30934 ft 465 kts 168°
2026-04-25 21:22 30.03045 33.65712 30933 ft 466 kts 168°
2026-04-25 21:23 29.96866 33.68056 30941 ft 467 kts 168°
2026-04-25 21:23 29.90681 33.70398 30932 ft 468 kts 168°
2026-04-25 21:24 29.84485 33.72742 30943 ft 469 kts 168°
2026-04-25 21:24 29.78284 33.75085 30949 ft 469 kts 168°
2026-04-25 21:25 29.72118 33.77411 30948 ft 470 kts 168°
2026-04-25 21:25 29.65904 33.79754 30951 ft 470 kts 168°
2026-04-25 21:26 29.59690 33.82092 30961 ft 469 kts 168°
2026-04-25 21:26 29.53482 33.84426 30961 ft 470 kts 168°
2026-04-25 21:27 29.47273 33.86760 30967 ft 470 kts 168°
2026-04-25 21:27 29.41059 33.89093 30969 ft 470 kts 168°
2026-04-25 21:28 29.34847 33.91423 30969 ft 470 kts 169°
2026-04-25 21:28 29.28629 33.93753 30986 ft 470 kts 169°
2026-04-25 21:29 29.22403 33.96081 30993 ft 471 kts 169°
2026-04-25 21:29 29.16164 33.98409 30998 ft 472 kts 169°
2026-04-25 21:30 29.09918 34.00737 30992 ft 472 kts 169°
2026-04-25 21:30 29.04721 34.02673 30995 ft 473 kts 169°
2026-04-25 21:31 28.97448 34.05379 30996 ft 473 kts 169°
2026-04-25 21:31 28.91692 34.07518 30989 ft 474 kts 170°
2026-04-25 21:32 28.85766 34.09717 30995 ft 475 kts 170°
2026-04-25 21:32 28.79463 34.12054 30984 ft 476 kts 170°
2026-04-25 21:33 28.73166 34.14386 30986 ft 476 kts 170°
2026-04-25 21:33 28.66865 34.16717 30973 ft 476 kts 170°
2026-04-25 21:34 28.60559 34.19046 30961 ft 476 kts 171°
2026-04-25 21:34 28.54265 34.21366 30971 ft 475 kts 171°
2026-04-25 21:35 28.48000 34.23673 30957 ft 476 kts 171°
2026-04-25 21:35 28.41686 34.25995 30941 ft 477 kts 171°
2026-04-25 21:36 28.35362 34.28320 30939 ft 478 kts 171°
2026-04-25 21:36 28.29027 34.30645 30926 ft 479 kts 171°
2026-04-25 21:37 28.24778 34.32203 30906 ft 479 kts 171°
2026-04-25 21:37 28.16353 34.35290 30907 ft 477 kts 171°
2026-04-25 21:38 28.11099 34.37211 30895 ft 477 kts 171°
2026-04-25 21:38 28.04782 34.39519 30898 ft 477 kts 171°
2026-04-25 21:39 27.98537 34.42220 30902 ft 491 kts 160°
2026-04-25 21:39 27.92739 34.46474 30907 ft 499 kts 154°
2026-04-25 21:40 27.87013 34.50942 30896 ft 500 kts 154°
2026-04-25 21:40 27.81270 34.55366 30894 ft 500 kts 155°
2026-04-25 21:41 27.75495 34.59747 30889 ft 500 kts 155°
2026-04-25 21:41 27.69710 34.64108 30885 ft 500 kts 155°
2026-04-25 21:42 27.63917 34.68469 30891 ft 501 kts 155°
2026-04-25 21:42 27.58117 34.72834 30889 ft 502 kts 155°
2026-04-25 21:43 27.52309 34.77201 30892 ft 502 kts 155°
2026-04-25 21:43 27.46525 34.81545 30893 ft 503 kts 155°
2026-04-25 21:44 27.40703 34.85912 30896 ft 503 kts 155°
2026-04-25 21:45 27.31960 34.92460 30897 ft 503 kts 155°
2026-04-25 21:45 27.26128 34.96820 30897 ft 504 kts 156°
2026-04-25 21:46 27.20292 35.01177 30898 ft 504 kts 156°
2026-04-25 21:46 27.14455 35.05530 30898 ft 504 kts 156°
2026-04-25 21:47 27.08610 35.09883 30900 ft 504 kts 156°
2026-04-25 21:47 27.02770 35.14227 30897 ft 504 kts 156°
2026-04-25 21:48 26.96927 35.18568 30898 ft 504 kts 156°
2026-04-25 21:48 26.91082 35.22904 30904 ft 504 kts 156°
2026-04-25 21:49 26.85236 35.27236 30898 ft 504 kts 156°
2026-04-25 21:49 26.79424 35.31538 30896 ft 504 kts 156°
2026-04-25 21:50 26.73573 35.35863 30898 ft 504 kts 156°
2026-04-25 21:50 26.67718 35.40187 30898 ft 504 kts 156°
2026-04-25 21:51 26.61866 35.44503 30895 ft 504 kts 156°
2026-04-25 21:51 26.59068 35.46925 30888 ft 517 kts 145°
2026-04-25 21:51 26.56611 35.49928 30900 ft 529 kts 135°
2026-04-25 21:51 26.54573 35.53403 30892 ft 541 kts 124°
2026-04-25 21:52 26.53004 35.57243 30911 ft 545 kts 119°
2026-04-25 21:52 26.50130 35.65102 30885 ft 546 kts 117°
2026-04-25 21:53 26.47255 35.72937 30889 ft 545 kts 118°
2026-04-25 21:53 26.44321 35.80665 30886 ft 543 kts 119°
2026-04-25 21:54 26.41339 35.88401 30882 ft 542 kts 119°
2026-04-25 21:54 26.38360 35.96118 30878 ft 541 kts 119°
2026-04-25 21:55 26.35383 36.03833 30883 ft 541 kts 119°
2026-04-25 21:55 26.32409 36.11533 30889 ft 541 kts 119°
2026-04-25 21:56 26.29432 36.19227 30884 ft 541 kts 119°
2026-04-25 21:56 26.26445 36.26930 30874 ft 541 kts 119°
2026-04-25 21:57 26.23459 36.34618 30885 ft 541 kts 119°
2026-04-25 21:57 26.20463 36.42320 30882 ft 542 kts 120°
2026-04-25 21:58 26.17455 36.49937 30883 ft 540 kts 122°
2026-04-25 21:58 26.13949 36.57286 30889 ft 536 kts 126°
2026-04-25 21:59 26.10271 36.64495 30882 ft 536 kts 126°
2026-04-25 21:59 26.06622 36.71746 30886 ft 537 kts 126°
2026-04-25 22:00 26.01223 36.82666 30887 ft 538 kts 126°
2026-04-25 22:00 25.97620 36.89954 30895 ft 537 kts 126°
2026-04-25 22:01 25.94012 36.97230 30897 ft 537 kts 126°
2026-04-25 22:01 25.91009 37.03271 30885 ft 537 kts 126°
2026-04-25 22:02 25.86787 37.11754 30890 ft 536 kts 126°
2026-04-25 22:02 25.83181 37.18989 30905 ft 535 kts 126°
2026-04-25 22:03 25.79576 37.26209 30892 ft 534 kts 126°
2026-04-25 22:03 25.75984 37.33419 30909 ft 534 kts 126°
2026-04-25 22:04 25.72395 37.40623 30911 ft 534 kts 126°
2026-04-25 22:04 25.68801 37.47828 30933 ft 534 kts 126°
2026-04-25 22:05 25.65205 37.55020 30934 ft 533 kts 126°
2026-04-25 22:05 25.61635 37.62154 30952 ft 531 kts 126°
2026-04-25 22:06 25.57996 37.69402 30948 ft 538 kts 126°
2026-04-25 22:06 25.54362 37.76630 30941 ft 543 kts 126°
2026-04-25 22:07 25.51290 37.82742 30921 ft 540 kts 126°
2026-04-25 22:07 25.47075 37.91125 30932 ft 534 kts 126°
2026-04-25 22:08 25.43452 37.98299 30930 ft 534 kts 126°
2026-04-25 22:08 25.39823 38.05474 30927 ft 534 kts 126°
2026-04-25 22:09 25.36193 38.12643 30921 ft 534 kts 126°
2026-04-25 22:09 25.32569 38.19792 30932 ft 534 kts 126°
2026-04-25 22:10 25.30748 38.23378 30727 ft 538 kts 126°
2026-04-25 22:10 25.29103 38.27110 30219 ft 543 kts 117°
2026-04-25 22:10 25.27898 38.31079 29553 ft 544 kts 112°
2026-04-25 22:10 25.26823 38.35075 28835 ft 542 kts 111°
2026-04-25 22:11 25.25780 38.39079 28093 ft 541 kts 111°
2026-04-25 22:11 25.24739 38.43057 27338 ft 538 kts 111°
2026-04-25 22:11 25.23686 38.47015 26591 ft 536 kts 111°
2026-04-25 22:11 25.22616 38.50956 25850 ft 533 kts 111°
2026-04-25 22:12 25.21536 38.54870 25054 ft 531 kts 111°
2026-04-25 22:12 25.20472 38.58693 24517 ft 523 kts 111°
2026-04-25 22:12 25.19412 38.62493 24033 ft 514 kts 111°
2026-04-25 22:12 25.18701 38.65037 23672 ft 509 kts 112°
2026-04-25 22:13 25.17332 38.69937 22803 ft 500 kts 112°
2026-04-25 22:13 25.16310 38.73587 22138 ft 495 kts 112°
2026-04-25 22:13 25.15303 38.77186 21497 ft 489 kts 112°
2026-04-25 22:13 25.14304 38.80752 20870 ft 483 kts 112°
2026-04-25 22:14 25.13319 38.84268 20274 ft 477 kts 112°
2026-04-25 22:14 25.12344 38.87746 19679 ft 471 kts 112°
2026-04-25 22:14 25.11379 38.91182 19108 ft 466 kts 112°
2026-04-25 22:14 25.10426 38.94575 18547 ft 461 kts 112°
2026-04-25 22:15 25.09483 38.97927 17940 ft 456 kts 112°
2026-04-25 22:15 25.08548 39.01248 17305 ft 451 kts 112°
2026-04-25 22:15 25.07622 39.04532 16706 ft 445 kts 112°
2026-04-25 22:16 25.05800 39.10982 15481 ft 436 kts 111°
2026-04-25 22:16 25.04901 39.14156 14865 ft 432 kts 111°
2026-04-25 22:16 25.04013 39.17297 14356 ft 426 kts 111°
2026-04-25 22:16 25.03140 39.20387 13972 ft 417 kts 111°
2026-04-25 22:17 25.02301 39.23354 13840 ft 402 kts 111°
2026-04-25 22:17 25.01485 39.26240 13744 ft 387 kts 111°
2026-04-25 22:17 25.00699 39.29018 13642 ft 372 kts 111°
2026-04-25 22:17 24.99942 39.31686 13562 ft 359 kts 111°
2026-04-25 22:18 24.99209 39.34267 13473 ft 346 kts 111°
2026-04-25 22:18 24.98501 39.36756 13400 ft 335 kts 112°
2026-04-25 22:18 24.97816 39.39161 13323 ft 324 kts 112°
2026-04-25 22:18 24.97154 39.41484 13237 ft 313 kts 112°
2026-04-25 22:19 24.96510 39.43743 12981 ft 306 kts 112°
2026-04-25 22:19 24.95870 39.45973 12715 ft 305 kts 112°
2026-04-25 22:19 24.95234 39.48194 12418 ft 303 kts 112°
2026-04-25 22:19 24.94602 39.50405 12179 ft 300 kts 112°
2026-04-25 22:20 24.93977 39.52592 11844 ft 300 kts 111°
2026-04-25 22:20 24.93354 39.54773 11636 ft 295 kts 111°
2026-04-25 22:20 24.92747 39.56899 11541 ft 287 kts 111°
2026-04-25 22:20 24.92157 39.58962 11459 ft 278 kts 111°
2026-04-25 22:21 24.91580 39.60956 11350 ft 268 kts 115°
2026-04-25 22:21 24.90583 39.62544 11188 ft 243 kts 148°
2026-04-25 22:21 24.89105 39.63301 10846 ft 230 kts 165°
2026-04-25 22:21 24.87587 39.63825 10410 ft 227 kts 168°
2026-04-25 22:22 24.86060 39.64234 10034 ft 224 kts 170°
2026-04-25 22:22 24.84544 39.64582 9592 ft 221 kts 171°
2026-04-25 22:22 24.83039 39.64909 9186 ft 219 kts 171°
2026-04-25 22:22 24.81544 39.65229 8716 ft 219 kts 171°
2026-04-25 22:23 24.80066 39.65544 8250 ft 220 kts 171°
2026-04-25 22:23 24.78565 39.65864 7766 ft 220 kts 171°
2026-04-25 22:23 24.77062 39.66184 7266 ft 220 kts 170°
2026-04-25 22:23 24.75552 39.66506 6787 ft 222 kts 170°
2026-04-25 22:24 24.74035 39.66830 6287 ft 223 kts 170°
2026-04-25 22:24 24.73014 39.67048 6049 ft 218 kts 169°
2026-04-25 22:24 24.71081 39.67462 5564 ft 211 kts 170°
2026-04-25 22:24 24.69648 39.67767 5082 ft 212 kts 170°
2026-04-25 22:25 24.68182 39.68080 4478 ft 219 kts 169°
2026-04-25 22:25 24.66685 39.68400 3948 ft 214 kts 169°
2026-04-25 22:25 24.65288 39.68699 3684 ft 198 kts 169°
2026-04-25 22:25 24.63986 39.68977 3435 ft 182 kts 169°
2026-04-25 22:26 24.62794 39.69231 3232 ft 166 kts 169°
2026-04-25 22:26 24.61709 39.69462 2936 ft 154 kts 170°
2026-04-25 22:26 24.60651 39.69691 2825 ft 151 kts 170°
2026-04-25 22:26 24.59636 39.69921 2569 ft 148 kts 170°
2026-04-25 22:27 24.58626 39.70121 2371 ft 146 kts 169°
2026-04-25 22:27 24.57638 39.70341 2183 ft 143 kts 170°
2026-04-25 22:27 24.57016 39.70470 2132 ft 131 kts 171°
2026-04-25 22:27 24.56281 39.70618 2120 ft 78 kts 169°
2026-04-25 22:28 24.55956 39.70690 2112 ft 26 kts 168°
2026-04-25 22:28 24.55769 39.70733 2106 ft 30 kts 168°
2026-04-25 22:28 24.55503 39.70791 2101 ft 28 kts 168°
2026-04-25 22:28 24.55379 39.70834 2099 ft 27 kts 153°
2026-04-25 22:29 24.55213 39.70996 2098 ft 19 kts 95°
2026-04-25 22:29 24.55228 39.71092 2099 ft 19 kts 78°
2026-04-25 22:29 24.55276 39.71215 2100 ft 18 kts 26°
2026-04-25 22:30 24.55442 39.71188 2103 ft 12 kts 351°
2026-04-25 22:30 24.55522 39.71172 2105 ft 11 kts 348°
2026-04-25 22:30 24.55570 39.71162 2106 ft 0 kts 348°
2026-04-25 22:31 24.55608 39.71153 2106 ft 15 kts 348°
2026-04-25 22:31 24.55713 39.71139 2109 ft 2 kts 27°
2026-04-25 22:31 24.55734 39.71180 2109 ft 10 kts 79°
2026-04-25 22:31 24.55742 39.71228 2109 ft 5 kts 65°
2026-04-25 22:32 24.55744 39.71241 2111 ft 0 kts 76°
2026-04-25 22:32 24.55745 39.71245 2110 ft 0 kts 76°